Regional Weather Roundup
Issued by NWS

Home | Current Version | Previous Version | Graphics & Text | Print | Product List | Glossary On
Versions: 1 2 3 4 5 6 7 8 9 10 11 12 13 14 15 16 17 18 19 20 21 22 23 24 25 26 27 28 29 30 31 32 33 34 35 36 37 38 39 40 41 42 43 44 45 46 47 48 49 50
000
ASUS43 KFSD 270602
RWRSD

WEATHER ROUNDUP FOR SOUTH DAKOTA
NATIONAL WEATHER SERVICE SIOUX FALLS SD
1200 AM CST TUE JAN 27 2015

NOTE: "FAIR" INDICATES FEW OR NO CLOUDS BELOW 12,000 FEET WITH NO
SIGNIFICANT WEATHER AND/OR OBSTRUCTIONS TO VISIBILITY.


SDZ001>005-009-010-012>017-270700-
NORTHWEST AND NORTH CENTRAL SOUTH DAKOTA

CITY           SKY/WX    TMP DP  RH WIND       PRES   REMARKS
BUFFALO          N/A     45  32  60 W7        29.89R
FAITH            N/A     40  29  64 MISG      29.94S
MOBRIDGE       CLEAR     34  30  85 SE6       29.96S WCI  29
$$

SDZ012>016-024>037-041>051-057-063-072>074-270700-
SOUTHWEST AND SOUTH CENTRAL SOUTH DAKOTA

CITY           SKY/WX    TMP DP  RH WIND       PRES   REMARKS
RAPID CTY ARPT CLEAR     34  26  72 W3        29.98R
PIERRE         CLEAR     30  27  88 E6        29.99R WCI  24
CUSTER         CLEAR     50  21  32 W5        30.09R
PHILIP         CLEAR     31  27  85 CALM      29.98R
PINE RIDGE     CLEAR     37  29  72 W3        30.04S
WINNER         FAIR      39  29  67 SE9       30.02R
$$

SDZ004>011-016>023-039-040-270700-
NORTHEAST SOUTH DAKOTA

CITY           SKY/WX    TMP DP  RH WIND       PRES   REMARKS
ABERDEEN       CLEAR     28  26  92 E5        30.03S WCI  23
WATERTOWN      CLEAR     27  25  92 CALM      30.01S
SISSETON         N/A     28  28 100 CALM      30.02S
$$

SDZ017-020-022-023-036>040-048>070-270700-
SOUTHEAST SOUTH DAKOTA

CITY           SKY/WX    TMP DP  RH WIND       PRES   REMARKS
SIOUX FALLS    PTCLDY    32  29  88 W3        30.03R
HURON          CLEAR     28  27  96 CALM      30.04R
MITCHELL       CLEAR     33  30  88 CALM      30.06R
YANKTON        PTCLDY    36  30  80 NW3       30.07S
$$

ABBREVIATIONS USED IN REMARKS
   TC - TEMPERATURE IN CELSIUS
  WCI - WIND CHILL INDEX
   HX - HEAT INDEX
  VSB - VISIBILITY




USA.gov is the U.S. government's official web portal to all federal, state and local government web resources and services.